DECAYED

OBJECT D, 58920 (Decayed)

Orbit data source: Space-Track

You're viewing an Uncataloged Satellite

Recently launched and/or uncataloged satellites may have evolving metadata. Metadata may include but not limited to: Owner, Maufacturer, Bus, Motor, and Mission.

OBJECT D, 58920 was a satellite in LEO that was launched on Sat, 03 Feb 2024 UTC via a JIELONG-3 launch vehicle from the South China Sea Launch Area (SCSLA). Unknown objects in Earth's orbit typically refer to objects detected orbiting the Earth but have not yet been identified or cataloged. These objects could be anything from previously untracked satellites, spent rocket stages, debris from satellite collisions, or even natural meteoroids temporarily captured by Earth's gravity. This object's orbit decayed before it could be identified.

Not visible in the next 10 days
Identifier
58920, 2024-024D
Orbit
Decayed
Country
Flag of TBDTBD
Related business
None
Manufacturer
Unknown
Mission
Decayed Commercial Communications
Bus & Motor
Unknown
Mass
Unknown
Launch date (UTC)
2024-02-03 (2 years ago)
Launch vehicle
JIELONG-3
Launch site
South China Sea Launch Area (SCSLA)
Object type
Unknown
Shape & HBR
Box + 2 Pan, 0.6 m
Radar Cross Section
0.330 m², Medium (>0.1 m² and < 1m²)

Expand to show TLE details & history
Last TLE update: 10 months ago

TLE from 10 months ago
0 OBJECT D
1 58920U 24024D   25241.76751780  .11774272  24781-5  70736-3 0  9995
2 58920  97.3142 330.9371 0011286 286.1594  73.8464 16.40979217 88364
Epoch: 2025-08-29T18:25Z
TLE epoch observation values (Epoch: 2025-08-29T18:25:13.537Z)
Latitude
-0.00002°
Longitude
76.41926°
Altitude
164.407 km
Speed
7.809 km/s
True Right ascension
22h 03m 44s
True Declination
0° 00' 00"
Sunlit
Object was in full shadow at epoch
Visualization orbit readout
Latitude
Unknown
Longitude
Unknown
Altitude
Unknown
Speed
Unknown
Apparent Right ascension
Unknown
Apparent Declination
Unknown
Sunlit
N/A
Visualization observer readout
Local Sidereal Time
21:30:24
Azimuth
Unknown
Elevation
Unknown
Doppler factor
Unknown
Orbital elements
Apogee altitude
167.38 km
Perigee altitude
152.622 km
Semi-major axis
6,538.138 km
Eccentricity
0.00113
Inclination
97.3142°
RAAN
330.9371°
Arg. of periapsis
286.1594°
True anomaly
73.97067°
Mean anomaly
73.8464°
Eccentric anomaly
73.90853°
Mean motion
4.10546 °/min
Orbital period
87.69 mins
BSTAR
0.00070736
Loading maneuver chart data...
Computing Atmospheric mass density...
Loading historical data...
Loading historical data...
Loading historical data...
Loading historical data...
Loading historical data...
Loading historical data...
Loading historical data...

Documentation

Showing up to 5 results
|